Location: *
(48.4333°N, 5.0333°W)
Time: 22:13:02
(UTC+00:00)

Cosmos 614 Rocket - Pass Details

Date: 09 April 2020
Orbit: 734 x 763 km, 74.1° (Epoch: 25 May)

Event Time Altitude Azimuth Distance (km) Brightness Sun altitude
Rises 20:11:55 0° 208° (SSW) 3,214 7.3 -11.6°
Reaches altitude 10° 20:14:18 10° 211° (SSW) 2,291 6.5 -11.9°
Maximum altitude 20:19:29 69° 295° (WNW) 816 4.4 -12.7°
Drops below altitude 10° 20:24:41 10° 19° (NNE) 2,295 6.6 -13.4°
Sets 20:27:04 0° 22° (NNE) 3,220 7.3 -13.8°
